Wind_Speed
12 12 13 14 15 17 18 20 20 19 18 17 16 14 13 11 10 8 8 8 6 5 5 6 7 8 8 9 10 11 11 10 10 9 9 9 8 7 7 7 7 7 7 7 7 7 6 6 6
9 10 11 13 15 16 18 19 20 19 17 17 17 15 13 11 9 8 8 7 6 5 5 6 7 7 8 8 9 10 10 10 9 9 9 8 7 7 7 7 7 7 6 6 6 6 6 6 6
7 8 9 12 14 15 17 18 19 18 17 17 17 15 13 11 9 8 8 7 5 5 6 6 7 7 7 8 8 9 9 10 9 9 8 7 7 7 6 7 7 6 6 6 6 6 6 6 6
5 5 7 10 12 14 15 17 18 18 17 17 16 15 13 11 9 8 7 7 5 4 5 6 6 6 7 7 8 8 8 9 8 8 7 7 7 6 7 7 6 6 6 6 5 5 5 5 5
4 4 6 8 9 12 14 15 16 17 17 17 16 15 13 11 9 8 7 6 5 4 5 6 6 6 7 7 8 8 8 8 7 7 6 6 6 6 6 6 6 6 6 5 5 5 5 5 5
2 3 4 5 7 9 12 13 15 16 17 16 16 14 12 11 9 8 7 6 5 4 5 5 6 6 6 6 7 7 7 7 6 6 6 5 6 6 6 6 5 5 5 4 4 4 5 5 5
0 2 2 3 5 7 9 12 14 16 16 16 15 14 12 11 9 8 7 6 6 5 5 5 5 5 6 6 7 7 7 6 6 5 5 5 5 5 5 5 5 5 4 4 4 4 4 4 4
2 2 2 3 4 6 8 10 12 14 15 16 15 14 12 11 10 8 7 6 6 6 6 5 5 5 5 6 6 6 5 5 5 5 4 4 4 4 4 4 4 4 4 3 3 3 4 4 3
5 4 3 3 4 5 7 9 10 12 14 15 15 14 13 12 10 9 8 6 6 5 6 5 5 4 4 5 5 5 4 4 4 4 4 4 4 4 3 4 4 3 3 3 3 3 3 3 3
7 6 5 4 3 5 6 7 9 10 12 13 13 14 13 12 11 10 8 7 6 5 5 4 4 3 3 3 3 4 4 3 3 3 3 3 3 3 3 3 3 3 3 3 2 2 2 3 3
9 8 8 6 5 5 6 6 7 9 10 11 12 13 13 12 11 10 8 7 6 5 5 4 3 2 2 2 3 3 3 3 3 2 2 1 2 2 3 3 2 2 2 2 2 1 2 2 2
11 10 10 8 7 6 5 5 6 8 9 9 10 11 12 11 10 10 8 7 6 5 4 4 3 2 2 1 2 2 3 3 3 2 2 2 2 1 1 2 1 2 2 2 2 1 1 2 2
12 11 11 10 9 8 7 5 6 7 8 8 8 9 10 11 10 9 8 7 6 5 4 3 3 2 1 1 1 2 3 3 3 3 3 2 2 1 1 1 1 1 1 1 1 1 1 1 1
14 13 13 13 12 11 9 7 6 6 6 7 7 8 10 10 10 9 8 6 6 5 4 3 2 1 1 2 2 3 3 3 3 3 3 2 2 2 2 2 1 2 2 2 2 1 1 1 1
16 16 16 15 15 14 11 9 7 5 5 5 6 7 9 9 9 8 7 6 5 5 5 4 2 1 1 0 2 3 4 3 3 3 4 3 3 3 3 3 3 2 2 2 2 2 1 1 1
18 18 17 17 16 15 13 10 9 6 5 5 5 6 7 8 9 7 7 7 6 5 5 5 4 2 1 1 2 3 4 4 5 5 4 4 5 4 5 5 4 4 3 3 3 2 2 2 2
20 19 18 18 18 17 15 12 10 8 6 5 5 5 6 7 7 7 7 6 7 7 6 5 4 4 3 2 3 4 4 5 5 5 5 6 6 6 6 7 6 5 5 5 4 3 3 3 3
21 20 19 20 20 18 16 14 12 11 8 6 6 6 6 6 7 7 7 7 7 8 7 6 4 4 4 4 4 4 4 5 6 6 6 7 8 8 8 8 7 7 7 7 6 5 4 4 4
23 22 21 22 22 20 18 16 14 13 10 8 7 6 6 7 7 6 7 8 8 8 8 6 5 5 6 5 4 4 5 6 6 7 7 8 9 9 9 9 9 9 8 8 8 7 6 6 6
25 24 23 24 25 23 21 19 17 15 12 10 9 7 7 7 7 7 8 9 9 9 8 7 7 6 6 6 5 4 4 5 6 7 8 9 10 10 10 10 9 9 10 10 9 9 9 8 8
27 25 24 26 27 25 23 22 20 17 15 13 10 8 8 8 9 10 10 10 10 9 8 8 8 7 7 7 6 6 6 6 7 7 8 9 9 10 10 10 10 10 10 10 11 11 11 10 10
27 26 27 28 29 28 26 24 21 18 16 14 12 11 10 10 10 10 11 11 11 10 9 9 9 8 7 7 8 8 8 8 8 9 9 9 9 10 10 10 11 11 11 11 11 12 12 13 13
28 29 29 30 31 30 29 26 22 20 17 15 14 13 13 12 11 11 12 12 12 11 10 10 10 9 9 9 9 9 9 9 9 10 10 10 10 10 10 10 11 11 12 12 12 13 13 14 14
31 31 31 32 32 32 29 28 24 21 18 17 16 15 15 14 13 13 13 14 14 13 13 12 12 11 11 10 10 10 10 10 10 10 11 11 11 11 11 11 12 12 13 13 13 13 14 14 15
32 32 32 32 33 32 29 29 26 21 19 18 18 17 16 15 15 15 14 14 14 14 14 13 12 12 11 11 12 11 11 11 11 11 12 12 11 11 12 12 13 13 14 15 15 14 15 16 16
32 32 32 32 32 31 29 29 26 22 20 19 18 18 17 16 16 16 15 15 15 15 14 14 13 13 12 12 13 12 12 12 11 11 12 13 13 13 13 14 14 14 14 14 15 15 15 16 17
33 32 31 32 32 31 30 28 25 22 20 19 18 17 16 15 15 16 16 15 15 15 14 14 13 12 13 13 13 13 12 12 12 13 12 13 13 13 13 14 15 16 16 16 16 16 16 16 17
33 32 32 33 32 31 29 27 24 22 21 19 17 17 15 15 15 15 15 15 15 15 15 15 13 12 12 13 13 14 14 13 13 12 13 13 12 13 14 14 15 15 16 17 17 18 18 18 19
33 33 33 33 32 30 29 25 22 22 20 18 16 15 14 15 16 16 16 15 15 15 15 14 13 13 13 14 14 14 14 14 14 13 14 13 13 14 14 15 15 16 16 17 18 19 19 20 20
33 33 32 32 31 29 27 23 21 20 21 19 17 15 14 15 17 16 15 16 15 14 14 13 13 13 13 14 15 14 14 14 14 14 14 14 14 14 15 15 16 16 17 18 19 19 19 19 19
Wind_Direction
79 76 73 71 67 63 64 63 61 56 55 55 55 57 60 62 63 67 67 71 74 82 90 91 88 88 90 90 90 87 84 82 80 78 75 74 75 77 78 78 79 80 81 83 85 86 85 84 84
77 76 72 70 67 64 62 63 58 52 51 52 51 51 53 55 58 62 67 70 71 84 94 91 89 89 90 92 94 92 89 82 80 79 78 75 73 74 76 77 75 76 80 84 85 84 84 83 84
78 74 72 70 68 65 62 61 58 52 49 48 46 46 46 47 51 59 66 73 78 93 99 93 91 90 90 91 96 97 87 82 79 78 77 77 73 73 76 76 76 78 80 84 87 88 85 85 85
79 72 69 68 67 63 62 60 58 54 47 43 42 40 38 38 43 55 66 73 80 97 100 94 90 89 90 89 92 93 90 87 82 80 78 77 75 75 75 74 79 80 80 83 87 92 89 87 87
76 73 69 60 62 60 60 60 56 52 46 42 41 37 32 32 37 47 62 69 75 88 96 94 91 92 92 93 93 93 92 89 88 84 81 78 76 76 74 78 80 76 76 81 84 90 90 86 88
93 59 57 52 57 60 59 60 56 49 43 40 40 35 31 30 32 44 59 68 68 81 91 92 94 96 96 96 98 95 93 91 87 84 79 75 70 71 75 81 81 76 77 85 87 86 87 87 90
259 26 36 24 30 51 56 58 53 48 42 38 37 34 31 31 31 39 55 63 69 79 84 90 98 104 103 100 101 101 98 94 88 86 83 79 73 72 76 80 80 76 76 83 88 89 89 92 92
251 286 329 345 9 38 43 47 47 45 42 40 37 34 31 30 30 35 47 57 67 73 74 82 94 100 109 109 110 110 108 103 95 90 86 80 75 74 78 80 83 80 80 84 92 100 95 90 86
254 255 276 313 351 22 26 34 38 41 40 39 36 32 29 28 30 34 42 49 57 63 68 78 89 97 105 112 117 116 115 114 108 101 94 83 75 75 79 80 85 83 89 94 101 103 92 81 75
252 254 266 285 324 348 3 22 32 36 34 34 33 30 28 27 26 30 33 37 47 53 58 71 81 96 106 112 123 129 124 124 121 113 107 92 82 83 85 84 88 88 97 110 110 95 83 77 80
253 252 264 273 297 319 347 13 28 29 28 28 27 27 26 23 21 21 24 27 36 45 51 62 72 86 111 124 133 134 134 137 135 129 127 115 95 86 88 85 86 90 96 113 127 123 99 83 78
245 248 255 267 282 298 322 349 6 17 20 21 24 23 18 16 17 17 18 20 28 37 44 53 66 82 109 132 141 144 151 156 155 161 162 152 129 102 105 112 106 106 102 119 138 135 117 107 83
238 241 248 256 265 279 293 317 341 358 8 14 18 18 13 6 4 9 14 13 15 22 28 38 54 86 141 165 178 180 168 171 171 179 176 172 179 182 165 173 172 170 135 141 152 152 158 139 111
236 238 244 250 259 271 277 292 312 334 352 2 4 3 4 359 355 356 4 4 1 4 7 11 27 58 175 201 206 204 192 191 195 198 196 200 211 216 214 212 229 233 215 197 188 178 181 182 171
234 237 242 248 256 264 271 281 294 307 329 342 347 351 356 356 353 349 353 355 353 355 358 358 4 4 344 258 222 213 212 214 216 220 215 222 229 225 230 231 240 245 231 218 208 207 202 210 213
232 233 236 246 252 258 264 271 277 282 298 318 332 343 350 352 354 350 349 350 349 342 345 352 356 344 325 295 248 231 228 229 225 226 226 229 233 234 231 232 236 238 232 222 222 214 220 227 232
231 230 235 242 247 251 256 261 268 273 278 295 311 326 332 333 341 342 339 343 344 335 327 334 341 338 323 306 277 253 245 238 231 228 232 236 238 240 237 233 235 236 237 236 232 231 241 242 244
235 233 234 239 244 248 252 257 264 268 273 282 294 305 314 311 322 333 333 331 331 328 324 308 322 327 319 302 284 268 257 244 237 238 241 241 242 245 245 241 237 236 237 239 238 239 244 246 247
234 233 232 236 243 247 250 256 262 267 271 276 280 291 304 302 308 321 325 322 316 318 323 309 314 311 304 302 292 291 269 252 242 242 246 245 246 246 246 244 240 240 239 240 242 244 245 246 250
232 232 230 233 241 246 249 253 258 264 268 269 272 278 286 292 301 307 310 316 312 308 309 309 311 298 292 291 294 296 279 260 260 258 252 249 249 248 247 242 242 246 246 246 245 243 245 249 252
232 232 230 232 239 245 248 250 254 258 258 259 264 266 269 279 286 292 297 305 310 304 301 301 299 291 285 284 286 288 277 266 263 261 255 252 253 251 249 249 246 247 248 251 251 246 246 251 255
230 231 231 232 236 241 246 247 249 253 255 257 262 266 272 276 280 284 291 295 301 301 293 286 286 287 285 283 285 284 273 270 267 257 255 254 257 253 250 249 245 248 250 252 254 250 250 253 257
229 230 230 232 236 240 245 247 247 252 253 256 261 268 272 273 275 280 284 285 289 295 289 281 275 277 281 279 276 276 271 271 268 259 254 255 255 250 251 252 251 249 250 252 255 256 255 255 256
228 229 230 232 237 239 244 249 249 251 255 258 263 267 269 271 273 277 278 278 284 287 285 279 276 271 273 273 272 270 272 276 272 261 256 255 251 250 250 253 252 251 253 254 256 259 258 257 258
228 229 230 232 236 241 244 250 254 254 255 258 263 265 265 266 270 274 278 279 279 280 280 276 275 266 267 269 271 272 272 273 272 263 256 255 252 249 250 253 254 256 257 257 260 262 262 259 261
229 231 233 236 239 243 245 249 254 256 257 257 259 261 262 264 265 269 273 278 279 276 278 275 275 268 267 267 268 273 276 272 267 264 258 257 256 254 254 255 257 257 259 260 262 265 267 263 265
228 230 233 236 240 243 245 249 251 253 256 257 257 259 260 261 265 266 267 274 277 277 281 278 273 271 268 267 267 271 275 273 265 266 264 262 259 260 261 261 261 260 261 264 266 265 267 268 266
226 229 231 235 240 243 246 248 249 249 252 254 255 256 255 258 263 266 269 274 274 275 276 273 266 265 270 267 268 271 274 273 268 266 265 262 260 263 262 262 261 262 264 266 266 266 267 268 267
226 228 231 236 240 243 247 247 248 247 249 250 251 253 254 258 264 268 269 271 273 272 274 276 265 261 268 272 271 272 273 272 269 269 265 263 261 262 263 263 263 264 266 268 270 271 272 272 271
226 229 232 236 241 244 247 244 243 243 244 245 248 252 256 260 262 265 269 270 271 270 269 268 263 263 267 270 271 269 269 268 268 268 267 265 263 262 262 264 264 264 267 268 270 273 274 275 274
Height
5894 5894 5895 5895 5895 5893 5891 5890 5890 5889 5889 5889 5888 5888 5888 5888 5889 5891 5889 5888 5888 5889 5889 5890 5890 5890 5890 5891 5891 5892 5893 5894 5895 5896 5896 5897 5898 5898 5899 5899 5899 5900 5900 5900 5900 5900 5900 5901 5901
5895 5896 5898 5898 5896 5895 5894 5892 5891 5892 5892 5891 5890 5890 5889 5889 5889 5889 5889 5889 5890 5890 5890 5891 5891 5891 5891 5892 5892 5893 5894 5895 5896 5897 5897 5898 5899 5899 5900 5900 5901 5901 5901 5901 5901 5901 5902 5902 5902
5897 5897 5899 5899 5898 5897 5896 5894 5893 5893 5893 5892 5891 5891 5891 5891 5891 5890 5890 5890 5891 5891 5891 5891 5892 5892 5892 5893 5893 5894 5895 5896 5897 5898 5899 5899 5900 5900 5901 5901 5902 5902 5902 5902 5902 5903 5903 5903 5903
5898 5899 5900 5900 5899 5899 5898 5897 5895 5895 5894 5894 5893 5893 5892 5892 5892 5891 5891 5891 5892 5892 5892 5892 5892 5893 5893 5894 5895 5895 5896 5897 5898 5898 5899 5900 5901 5901 5901 5902 5902 5902 5903 5903 5903 5904 5904 5904 5904
5899 5900 5900 5900 5901 5900 5900 5898 5898 5897 5896 5895 5895 5894 5894 5894 5893 5893 5892 5892 5893 5893 5893 5893 5893 5893 5894 5895 5895 5896 5897 5898 5899 5899 5900 5901 5901 5902 5902 5903 5903 5903 5903 5904 5904 5904 5905 5905 5905
5900 5900 5901 5901 5901 5901 5901 5900 5899 5898 5898 5897 5896 5896 5896 5896 5895 5894 5893 5894 5894 5894 5893 5893 5894 5894 5895 5895 5896 5897 5898 5899 5900 5900 5901 5901 5902 5902 5903 5903 5904 5904 5904 5904 5905 5905 5905 5906 5906
5901 5901 5901 5901 5902 5902 5902 5901 5900 5899 5899 5899 5898 5897 5897 5897 5897 5896 5895 5895 5894 5894 5894 5894 5894 5895 5895 5896 5897 5898 5898 5899 5900 5901 5901 5902 5902 5903 5903 5904 5905 5905 5905 5905 5905 5906 5906 5906 5907
5900 5901 5901 5901 5902 5903 5903 5902 5901 5901 5901 5901 5900 5899 5899 5899 5898 5897 5896 5896 5895 5895 5895 5895 5895 5895 5896 5896 5897 5898 5899 5900 5900 5901 5901 5902 5903 5903 5904 5904 5905 5905 5906 5906 5906 5906 5907 5907 5907
5900 5902 5901 5901 5902 5903 5903 5903 5903 5903 5902 5902 5902 5901 5900 5900 5899 5898 5897 5897 5897 5896 5896 5896 5896 5896 5896 5897 5898 5898 5899 5900 5900 5901 5902 5902 5903 5904 5904 5905 5905 5905 5906 5906 5906 5907 5907 5908 5908
5899 5900 5900 5901 5902 5903 5903 5903 5904 5904 5903 5903 5903 5902 5901 5900 5900 5899 5898 5898 5897 5897 5897 5896 5896 5896 5897 5897 5898 5898 5899 5900 5901 5901 5902 5903 5903 5904 5904 5905 5906 5906 5906 5906 5907 5907 5908 5908 5909
5898 5899 5900 5901 5902 5902 5903 5904 5904 5905 5904 5904 5904 5903 5902 5902 5901 5900 5899 5899 5898 5897 5897 5897 5897 5897 5897 5897 5898 5898 5899 5900 5901 5901 5902 5903 5904 5904 5905 5905 5906 5906 5907 5907 5907 5907 5908 5909 5909
5897 5898 5899 5900 5901 5902 5903 5904 5904 5905 5905 5905 5904 5904 5903 5903 5902 5901 5900 5899 5898 5898 5898 5897 5897 5897 5897 5897 5898 5898 5899 5900 5901 5901 5902 5903 5904 5904 5905 5906 5906 5907 5907 5907 5908 5908 5909 5909 5909
5896 5897 5898 5899 5900 5902 5903 5904 5904 5905 5905 5905 5905 5905 5904 5904 5902 5901 5901 5900 5899 5899 5898 5898 5897 5897 5897 5898 5898 5898 5899 5900 5900 5901 5902 5903 5904 5904 5905 5906 5906 5907 5907 5908 5908 5908 5909 5909 5910
5894 5895 5896 5898 5899 5901 5902 5903 5904 5905 5905 5905 5905 5905 5905 5904 5903 5902 5901 5900 5900 5899 5898 5898 5898 5897 5897 5897 5898 5898 5899 5899 5900 5901 5902 5902 5903 5904 5905 5906 5906 5907 5907 5908 5908 5909 5909 5910 5910
5892 5894 5895 5896 5898 5899 5901 5903 5903 5904 5904 5905 5905 5905 5905 5904 5903 5902 5901 5900 5900 5899 5899 5898 5897 5897 5897 5897 5897 5898 5898 5899 5899 5900 5901 5902 5903 5904 5905 5905 5906 5906 5907 5908 5908 5909 5909 5910 5910
5890 5892 5893 5895 5896 5897 5901 5901 5902 5903 5903 5904 5904 5904 5904 5904 5903 5902 5901 5900 5899 5899 5898 5898 5898 5897 5897 5897 5897 5897 5898 5898 5899 5899 5900 5901 5902 5903 5904 5905 5905 5906 5906 5907 5908 5908 5909 5910 5910
5887 5889 5891 5893 5894 5895 5898 5899 5900 5901 5902 5903 5904 5904 5903 5903 5902 5901 5901 5900 5899 5899 5898 5898 5897 5897 5897 5897 5897 5897 5897 5897 5898 5898 5899 5900 5901 5902 5903 5904 5904 5905 5906 5907 5907 5908 5909 5909 5909
5885 5887 5889 5890 5891 5893 5895 5897 5898 5899 5900 5901 5902 5902 5902 5902 5901 5901 5900 5899 5899 5898 5896 5896 5897 5897 5897 5896 5896 5896 5896 5896 5896 5897 5898 5899 5900 5901 5901 5902 5903 5904 5905 5906 5906 5907 5908 5908 5909
5881 5883 5886 5888 5888 5891 5892 5894 5896 5897 5898 5899 5900 5901 5901 5900 5900 5900 5899 5899 5898 5897 5896 5895 5896 5896 5896 5896 5895 5895 5895 5895 5895 5895 5896 5897 5898 5899 5900 5901 5902 5903 5904 5905 5905 5906 5907 5907 5908
5877 5880 5883 5885 5885 5887 5889 5892 5893 5895 5896 5897 5898 5899 5899 5899 5899 5899 5898 5898 5897 5896 5896 5895 5895 5895 5895 5895 5895 5895 5894 5894 5894 5894 5895 5896 5897 5898 5898 5899 5900 5901 5902 5903 5904 5905 5905 5906 5906
5873 5877 5879 5881 5882 5884 5886 5889 5891 5892 5894 5894 5895 5896 5897 5897 5897 5897 5897 5896 5896 5895 5894 5894 5894 5893 5893 5893 5894 5894 5894 5893 5893 5893 5894 5894 5895 5896 5897 5897 5898 5899 5900 5901 5902 5903 5903 5904 5905
5869 5872 5874 5876 5878 5880 5883 5885 5888 5889 5891 5892 5893 5894 5894 5895 5895 5895 5894 5894 5894 5893 5892 5893 5893 5893 5892 5892 5892 5892 5892 5891 5891 5891 5892 5892 5892 5893 5894 5895 5896 5897 5898 5898 5899 5900 5901 5902 5902
5864 5866 5869 5871 5873 5876 5878 5881 5885 5886 5887 5889 5890 5891 5892 5892 5892 5892 5892 5891 5891 5891 5890 5891 5891 5891 5891 5890 5890 5890 5890 5889 5889 5889 5889 5890 5890 5891 5892 5893 5894 5894 5895 5896 5897 5897 5898 5899 5899
5857 5860 5863 5866 5868 5871 5875 5877 5880 5882 5884 5886 5887 5888 5888 5889 5889 5889 5888 5888 5888 5888 5888 5888 5888 5888 5888 5888 5887 5887 5887 5887 5887 5887 5887 5887 5888 5888 5889 5890 5891 5892 5893 5893 5894 5895 5895 5896 5896
5852 5856 5859 5861 5863 5867 5871 5872 5876 5879 5881 5882 5883 5884 5885 5885 5885 5885 5884 5885 5885 5884 5884 5885 5884 5884 5884 5885 5885 5885 5884 5884 5884 5884 5885 5885 5885 5886 5886 5887 5888 5889 5890 5890 5891 5891 5892 5892 5893
5847 5851 5855 5858 5860 5863 5866 5868 5872 5875 5877 5878 5879 5880 5881 5882 5882 5882 5882 5881 5881 5880 5881 5881 5881 5880 5881 5881 5881 5881 5881 5881 5882 5881 5882 5882 5882 5883 5883 5884 5885 5886 5886 5887 5887 5888 5888 5888 5889
5841 5845 5850 5853 5855 5858 5861 5864 5868 5870 5872 5874 5875 5876 5877 5878 5878 5878 5878 5878 5878 5877 5877 5877 5877 5877 5877 5878 5878 5878 5878 5878 5878 5879 5879 5879 5879 5880 5880 5881 5881 5882 5883 5883 5883 5884 5884 5884 5885
5836 5840 5844 5847 5850 5853 5856 5860 5864 5866 5868 5870 5871 5872 5873 5874 5874 5875 5874 5874 5874 5874 5874 5873 5874 5874 5874 5874 5874 5874 5874 5875 5875 5875 5875 5876 5876 5877 5877 5877 5878 5879 5879 5879 5879 5880 5880 5880 5880
5831 5835 5838 5842 5846 5849 5852 5858 5860 5862 5864 5866 5867 5868 5869 5870 5871 5870 5871 5870 5870 5870 5870 5869 5870 5870 5871 5871 5871 5871 5872 5872 5872 5872 5872 5872 5873 5873 5873 5874 5874 5875 5875 5875 5875 5875 5875 5875 5875
5826 5830 5834 5838 5842 5845 5848 5855 5855 5857 5859 5861 5863 5865 5866 5866 5867 5867 5867 5867 5866 5866 5866 5866 5866 5867 5868 5868 5868 5868 5869 5869 5869 5869 5869 5869 5869 5869 5870 5870 5871 5871 5871 5871 5870 5870 5870 5870 5870